Temperatura - Umidità - Pioggia orarie dal 07-11-2019 al 15-11-2019

Dati orari da stazione meteo dal 07-11-2019 al 15-11-2019

Nome Stazione Data Ora Temperatura [°C] Umidità [%] Pioggia [mm] Pressione[hPa]
Sant'Anna di Vinadio 07-11-2019 01:00 -0.6 59 0 1005.8
Sant'Anna di Vinadio 07-11-2019 01:10 -0.5 56 0 1005.6
Sant'Anna di Vinadio 07-11-2019 01:20 -0.5 56 0 1005.4
Sant'Anna di Vinadio 07-11-2019 01:30 -0.5 55 0 1005.3
Sant'Anna di Vinadio 07-11-2019 01:40 -0.5 55 0 1005.2
Sant'Anna di Vinadio 07-11-2019 01:50 -0.5 52 0 1005.2
Sant'Anna di Vinadio 07-11-2019 02:00 -0.5 51 0 1005.1
Sant'Anna di Vinadio 07-11-2019 02:10 -0.4 51 0 1005.1
Sant'Anna di Vinadio 07-11-2019 02:20 -0.3 46 0 1005
Sant'Anna di Vinadio 07-11-2019 02:30 -0.3 45 0 1004.9
Sant'Anna di Vinadio 07-11-2019 02:40 0.2 43 0 1005
Sant'Anna di Vinadio 07-11-2019 02:50 0 49 0 1005
Sant'Anna di Vinadio 07-11-2019 03:00 -0.4 50 0 1004.9
Sant'Anna di Vinadio 07-11-2019 03:10 -0.2 49 0 1005
Sant'Anna di Vinadio 07-11-2019 03:20 -0.2 52 0 1005
Sant'Anna di Vinadio 07-11-2019 03:30 -0.3 54 0 1005.1
Sant'Anna di Vinadio 07-11-2019 03:40 -0.4 57 0 1005.1
Sant'Anna di Vinadio 07-11-2019 03:50 -0.7 58 0 1005.1
Sant'Anna di Vinadio 07-11-2019 04:00 -0.6 58 0 1005.1
Sant'Anna di Vinadio 07-11-2019 04:10 -0.6 57 0 1005.1
Sant'Anna di Vinadio 07-11-2019 04:20 -0.6 56 0 1005
Sant'Anna di Vinadio 07-11-2019 04:30 -0.6 57 0 1005.1
Sant'Anna di Vinadio 07-11-2019 04:40 -0.7 57 0 1005.1
Sant'Anna di Vinadio 07-11-2019 04:50 -0.8 60 0 1005.1
Sant'Anna di Vinadio 07-11-2019 05:00 -0.9 61 0 1005.1
Sant'Anna di Vinadio 07-11-2019 05:10 -0.7 58 0 1005.1
Sant'Anna di Vinadio 07-11-2019 05:20 -0.6 53 0 1005.1
Sant'Anna di Vinadio 07-11-2019 05:30 -0.6 50 0 1005.2
Sant'Anna di Vinadio 07-11-2019 05:40 -0.6 55 0 1005.2
Sant'Anna di Vinadio 07-11-2019 05:50 -0.8 55 0 1005.2
Sant'Anna di Vinadio 07-11-2019 06:00 -0.6 55 0 1005.3
Sant'Anna di Vinadio 07-11-2019 06:10 -0.5 49 0 1005.2
Sant'Anna di Vinadio 07-11-2019 06:20 -0.6 49 0 1005.1
Sant'Anna di Vinadio 07-11-2019 06:30 -0.6 48 0 1005.1
Sant'Anna di Vinadio 07-11-2019 06:40 -0.8 50 0 1005
Sant'Anna di Vinadio 07-11-2019 06:50 -0.8 51 0 1005.1
Sant'Anna di Vinadio 07-11-2019 07:00 -0.6 51 0 1005.2
Sant'Anna di Vinadio 07-11-2019 07:10 -0.5 46 0 1005.1
Sant'Anna di Vinadio 07-11-2019 07:20 -0.3 43 0 1005.2
Sant'Anna di Vinadio 07-11-2019 07:30 -0.3 44 0 1005.3
Sant'Anna di Vinadio 07-11-2019 07:40 -0.7 48 0 1005.3
Sant'Anna di Vinadio 07-11-2019 07:50 -0.3 45 0 1005.4
Sant'Anna di Vinadio 07-11-2019 08:00 -0.4 43 0 1005.4
Sant'Anna di Vinadio 07-11-2019 08:10 -0.2 40 0 1005.5
Sant'Anna di Vinadio 07-11-2019 08:20 0.3 42 0 1005.5
Sant'Anna di Vinadio 07-11-2019 08:30 0.5 43 0 1005.5
Sant'Anna di Vinadio 07-11-2019 08:40 0.6 43 0 1005.5
Sant'Anna di Vinadio 07-11-2019 08:50 0.8 45 0 1005.6
Sant'Anna di Vinadio 07-11-2019 09:00 1.2 42 0 1005.5
Sant'Anna di Vinadio 07-11-2019 09:10 1.4 40 0 1005.5
Sant'Anna di Vinadio 07-11-2019 09:20 1.6 40 0 1005.5
Sant'Anna di Vinadio 07-11-2019 09:30 1.4 41 0 1005.5
Sant'Anna di Vinadio 07-11-2019 09:40 1.6 40 0 1005.6
Sant'Anna di Vinadio 07-11-2019 09:50 1.2 44 0 1005.6
Sant'Anna di Vinadio 07-11-2019 10:00 0.8 45 0 1005.7
Sant'Anna di Vinadio 07-11-2019 10:10 0.7 47 0 1005.9
Sant'Anna di Vinadio 07-11-2019 10:20 0.7 48 0 1005.9
Sant'Anna di Vinadio 07-11-2019 10:30 0.7 50 0 1006
Sant'Anna di Vinadio 07-11-2019 10:40 0.9 49 0 1006
Sant'Anna di Vinadio 07-11-2019 10:50 0.9 50 0 1006
Sant'Anna di Vinadio 07-11-2019 11:00 0.8 53 0 1006
Sant'Anna di Vinadio 07-11-2019 11:10 0.6 55 0 1006
Sant'Anna di Vinadio 07-11-2019 11:20 1 55 0 1006
Sant'Anna di Vinadio 07-11-2019 11:30 1.1 56 0 1006
Sant'Anna di Vinadio 07-11-2019 11:40 1 58 0 1006
Sant'Anna di Vinadio 07-11-2019 11:50 1 58 0 1005.9
Sant'Anna di Vinadio 07-11-2019 12:00 1 59 0 1005.9
Sant'Anna di Vinadio 07-11-2019 12:10 1 61 0 1005.8
Sant'Anna di Vinadio 07-11-2019 12:20 0.9 63 0 1005.8
Sant'Anna di Vinadio 07-11-2019 12:30 0.8 63 0 1005.7
Sant'Anna di Vinadio 07-11-2019 12:40 0.7 65 0 1005.5
Sant'Anna di Vinadio 07-11-2019 12:50 0.9 65 0 1005.5
Sant'Anna di Vinadio 07-11-2019 13:00 1.1 65 0 1005.5
Sant'Anna di Vinadio 07-11-2019 13:10 0.8 66 0 1005.4
Sant'Anna di Vinadio 07-11-2019 13:20 0.6 66 0 1005.4
Sant'Anna di Vinadio 07-11-2019 13:30 0.8 67 0 1005.4
Sant'Anna di Vinadio 07-11-2019 13:40 0.8 68 0 1005.4
Sant'Anna di Vinadio 07-11-2019 13:50 0.7 69 0 1005.3
Sant'Anna di Vinadio 07-11-2019 14:00 0.6 70 0 1005.3
Sant'Anna di Vinadio 07-11-2019 14:10 0.6 72 0 1005.3
Sant'Anna di Vinadio 07-11-2019 14:20 0.4 74 0 1005.3
Sant'Anna di Vinadio 07-11-2019 14:30 0.3 77 0 1005.3
Sant'Anna di Vinadio 07-11-2019 14:40 0.2 78 0 1005.2
Sant'Anna di Vinadio 07-11-2019 14:50 0.1 80 0 1005.1
Sant'Anna di Vinadio 07-11-2019 15:00 0.2 82 0 1005
Sant'Anna di Vinadio 07-11-2019 15:10 0.2 83 0 1004.9
Sant'Anna di Vinadio 07-11-2019 15:20 0.3 83 0 1004.9
Sant'Anna di Vinadio 07-11-2019 15:30 0.3 85 0.1 1004.9
Sant'Anna di Vinadio 07-11-2019 15:40 0.1 87 0.2 1004.9
Sant'Anna di Vinadio 07-11-2019 15:50 0.1 90 0.1 1005
Sant'Anna di Vinadio 07-11-2019 16:00 -0.2 93 0.2 1004.9
Sant'Anna di Vinadio 07-11-2019 16:10 -0.2 95 0.1 1004.9
Sant'Anna di Vinadio 07-11-2019 16:20 -0.2 96 0.3 1004.8
Sant'Anna di Vinadio 07-11-2019 16:30 -0.7 96 0.3 1004.8
Sant'Anna di Vinadio 07-11-2019 16:40 -1.1 98 0.2 1004.9
Sant'Anna di Vinadio 07-11-2019 16:50 -1.1 104 0.4 1004.9
Sant'Anna di Vinadio 07-11-2019 17:00 -1.1 104 0.2 1004.7
Sant'Anna di Vinadio 07-11-2019 17:10 -0.9 104 0.3 1004.8
Sant'Anna di Vinadio 07-11-2019 17:20 -0.7 104 0.3 1004.8
Sant'Anna di Vinadio 07-11-2019 17:30 -0.6 104 0.1 1004.7
Sant'Anna di Vinadio 07-11-2019 17:40 -0.7 104 0.1 1004.6
Sant'Anna di Vinadio 07-11-2019 17:50 -0.5 104 0.1 1004.6
Sant'Anna di Vinadio 07-11-2019 18:00 -0.5 104 0 1004.5
Sant'Anna di Vinadio 07-11-2019 18:10 -0.3 100 0 1004.5
Sant'Anna di Vinadio 07-11-2019 18:20 -0.1 96 0.1 1004.5
Sant'Anna di Vinadio 07-11-2019 18:30 -0.1 94 0 1004.4
Sant'Anna di Vinadio 07-11-2019 18:40 0 93 0 1004.5
Sant'Anna di Vinadio 07-11-2019 18:50 0 93 0.1 1004.5
Sant'Anna di Vinadio 07-11-2019 19:00 0.1 94 0.1 1004.4
Sant'Anna di Vinadio 07-11-2019 19:10 0.2 92 0.1 1004.4
Sant'Anna di Vinadio 07-11-2019 19:20 0.1 93 0 1004.3
Sant'Anna di Vinadio 07-11-2019 19:30 0.2 94 0.1 1004.2
Sant'Anna di Vinadio 07-11-2019 19:40 0.2 94 0.4 1004.2
Sant'Anna di Vinadio 07-11-2019 19:50 0.2 97 0.2 1004.1
Sant'Anna di Vinadio 07-11-2019 20:00 0.2 100 0.5 1004
Sant'Anna di Vinadio 07-11-2019 20:10 0.3 99 0.1 1004
Sant'Anna di Vinadio 07-11-2019 20:20 0.2 104 0.1 1004
Sant'Anna di Vinadio 07-11-2019 20:30 0.1 104 0 1003.8
Sant'Anna di Vinadio 07-11-2019 20:40 0.2 104 0.1 1003.7
Sant'Anna di Vinadio 07-11-2019 20:50 0.3 104 0.1 1003.6
Sant'Anna di Vinadio 07-11-2019 21:00 0.2 104 0.2 1003.6
Sant'Anna di Vinadio 07-11-2019 21:10 0.1 104 0.2 1003.7
Sant'Anna di Vinadio 07-11-2019 21:20 -0.2 104 0.1 1003.7
Sant'Anna di Vinadio 07-11-2019 21:30 -0.1 104 0 1003.6
Sant'Anna di Vinadio 07-11-2019 21:40 0 104 0.2 1003.6
Sant'Anna di Vinadio 07-11-2019 21:50 0 104 0 1003.5
Sant'Anna di Vinadio 07-11-2019 22:00 0 104 0 1003.5
Sant'Anna di Vinadio 07-11-2019 22:10 0 104 0 1003.4
Sant'Anna di Vinadio 07-11-2019 22:20 0.1 104 0.1 1003.4
Sant'Anna di Vinadio 07-11-2019 22:30 0.2 104 0.2 1003.5
Sant'Anna di Vinadio 07-11-2019 22:40 0.1 104 0.1 1003.4
Sant'Anna di Vinadio 07-11-2019 22:50 0 104 0.1 1003.3
Sant'Anna di Vinadio 07-11-2019 23:00 -0.1 104 0.1 1003.2
Sant'Anna di Vinadio 07-11-2019 23:10 -0.1 104 0.2 1003.1
Sant'Anna di Vinadio 07-11-2019 23:20 -0.1 104 0.2 1003.2
Sant'Anna di Vinadio 07-11-2019 23:30 -0.1 104 0.1 1003
Sant'Anna di Vinadio 07-11-2019 23:40 -0.2 104 0.2 1002.9
Sant'Anna di Vinadio 07-11-2019 23:50 -0.3 104 0.1 1003
Sant'Anna di Vinadio 08-11-2019 00:00 -0.3 104 0.1 1002.9
Sant'Anna di Vinadio 08-11-2019 00:10 -0.3 104 0 1002.8
Sant'Anna di Vinadio 08-11-2019 00:20 -0.3 95 0 1002.7
Sant'Anna di Vinadio 08-11-2019 00:30 -0.3 88 0 1002.6
Sant'Anna di Vinadio 08-11-2019 00:40 -0.3 81 0 1002.4
Sant'Anna di Vinadio 08-11-2019 00:50 -0.3 77 0 1002.3
Sant'Anna di Vinadio 08-11-2019 01:00 -0.5 80 0 1002.2
Sant'Anna di Vinadio 08-11-2019 01:10 -1.2 83 0.1 1002.1
Sant'Anna di Vinadio 08-11-2019 01:20 -0.8 85 0 1002.2
Sant'Anna di Vinadio 08-11-2019 01:30 -0.6 90 0 1002
Sant'Anna di Vinadio 08-11-2019 01:40 -0.6 84 0 1001.9
Sant'Anna di Vinadio 08-11-2019 01:50 -0.5 84 0 1001.9
Sant'Anna di Vinadio 08-11-2019 02:00 -0.5 77 0 1001.8
Sant'Anna di Vinadio 08-11-2019 02:10 -0.6 77 0 1001.7
Sant'Anna di Vinadio 08-11-2019 02:20 -0.5 74 0 1001.7
Sant'Anna di Vinadio 08-11-2019 02:30 -0.5 75 0 1001.7
Sant'Anna di Vinadio 08-11-2019 02:40 -1.1 86 0 1001.5
Sant'Anna di Vinadio 08-11-2019 02:50 -2.3 92 0 1001.5
Sant'Anna di Vinadio 08-11-2019 03:00 -2.4 96 0 1001.4
Sant'Anna di Vinadio 08-11-2019 03:10 -2.3 98 0 1001.4
Sant'Anna di Vinadio 08-11-2019 03:20 -2.3 100 0 1001.3
Sant'Anna di Vinadio 08-11-2019 03:30 -1.8 104 0 1001.1
Sant'Anna di Vinadio 08-11-2019 03:40 -1.6 104 0 1001.1
Sant'Anna di Vinadio 08-11-2019 03:50 -1.6 104 0 1000.9
Sant'Anna di Vinadio 08-11-2019 04:00 -1.4 104 0 1000.7
Sant'Anna di Vinadio 08-11-2019 04:10 -1.4 99 0 1000.6
Sant'Anna di Vinadio 08-11-2019 04:20 -2 99 0 1000.7
Sant'Anna di Vinadio 08-11-2019 04:30 -2.3 104 0 1000.8
Sant'Anna di Vinadio 08-11-2019 04:40 -2.1 104 0 1000.9
Sant'Anna di Vinadio 08-11-2019 04:50 -1.7 104 0 1000.6
Sant'Anna di Vinadio 08-11-2019 05:00 -1.4 104 0 1000.5
Sant'Anna di Vinadio 08-11-2019 05:10 -1.3 104 0 1000.4
Sant'Anna di Vinadio 08-11-2019 05:20 -1.4 98 0.1 1000.3
Sant'Anna di Vinadio 08-11-2019 05:30 -1.7 99 0.5 1000.3
Sant'Anna di Vinadio 08-11-2019 05:40 -1.6 104 0.7 1000.3
Sant'Anna di Vinadio 08-11-2019 05:50 -1.5 104 0.1 1000.3
Sant'Anna di Vinadio 08-11-2019 06:00 -1.4 97 0 1000.2
Sant'Anna di Vinadio 08-11-2019 06:10 -2.1 100 0 1000.1
Sant'Anna di Vinadio 08-11-2019 06:20 -1.8 100 0 1000
Sant'Anna di Vinadio 08-11-2019 06:30 -1.8 100 0.7 1000
Sant'Anna di Vinadio 08-11-2019 06:40 -1.5 99 0.9 1000
Sant'Anna di Vinadio 08-11-2019 06:50 -1.5 94 0.8 1000
Sant'Anna di Vinadio 08-11-2019 07:00 -1.4 94 0.4 1000
Sant'Anna di Vinadio 08-11-2019 07:10 -1.4 92 0.2 1000
Sant'Anna di Vinadio 08-11-2019 07:20 -1.5 86 0 1000.1
Sant'Anna di Vinadio 08-11-2019 07:30 -1.5 80 0.1 1000.3
Sant'Anna di Vinadio 08-11-2019 07:40 -1.5 81 0 1000.5
Sant'Anna di Vinadio 08-11-2019 07:50 -1.5 81 0 1000.7
Sant'Anna di Vinadio 08-11-2019 08:00 -1.6 81 0.2 1000.8
Sant'Anna di Vinadio 08-11-2019 08:10 -1.6 79 0 1000.7
Sant'Anna di Vinadio 08-11-2019 08:20 -1.7 80 0 1000.7
Sant'Anna di Vinadio 08-11-2019 08:30 -1.6 80 0 1000.7
Sant'Anna di Vinadio 08-11-2019 08:40 -1.5 74 0 1000.7
Sant'Anna di Vinadio 08-11-2019 08:50 -0.9 72 0 1000.8
Sant'Anna di Vinadio 08-11-2019 09:00 -0.3 67 0 1000.8
Sant'Anna di Vinadio 08-11-2019 09:10 -0.2 64 0 1000.8
Sant'Anna di Vinadio 08-11-2019 09:20 -0.2 64 0 1000.8
Sant'Anna di Vinadio 08-11-2019 09:30 -0.4 64 0 1000.8
Sant'Anna di Vinadio 08-11-2019 09:40 -0.1 65 0.1 1000.8
Sant'Anna di Vinadio 08-11-2019 09:50 -0.5 65 0 1000.8
Sant'Anna di Vinadio 08-11-2019 10:00 -0.4 65 0.1 1000.8
Sant'Anna di Vinadio 08-11-2019 10:10 -0.2 63 0 1000.7
Sant'Anna di Vinadio 08-11-2019 10:20 0 63 0 1000.7
Sant'Anna di Vinadio 08-11-2019 10:30 0.1 62 0 1000.8
Sant'Anna di Vinadio 08-11-2019 10:40 -0.1 64 0 1001
Sant'Anna di Vinadio 08-11-2019 10:50 -0.3 65 0 1001
Sant'Anna di Vinadio 08-11-2019 11:00 -0.4 64 0 1001
Sant'Anna di Vinadio 08-11-2019 11:10 -0.2 64 0 1001.1
Sant'Anna di Vinadio 08-11-2019 11:20 -0.1 64 0 1001.1
Sant'Anna di Vinadio 08-11-2019 11:30 -0.3 65 0 1001.1
Sant'Anna di Vinadio 08-11-2019 11:40 0.1 64 0 1001.1
Sant'Anna di Vinadio 08-11-2019 11:50 0.4 61 0 1001.1
Sant'Anna di Vinadio 08-11-2019 12:00 0.7 58 0 1001.1
Sant'Anna di Vinadio 08-11-2019 12:10 1.3 56 0.1 1001.1
Sant'Anna di Vinadio 08-11-2019 12:20 0.9 55 0 1001
Sant'Anna di Vinadio 08-11-2019 12:30 1.7 53 0 1001.1
Sant'Anna di Vinadio 08-11-2019 12:40 1.8 49 0 1001.1
Sant'Anna di Vinadio 08-11-2019 12:50 1.9 49 0 1001
Sant'Anna di Vinadio 08-11-2019 13:00 1.3 50 0 1000.9
Sant'Anna di Vinadio 08-11-2019 13:10 1.2 48 0 1001
Sant'Anna di Vinadio 08-11-2019 13:20 1.2 47 0 1001
Sant'Anna di Vinadio 08-11-2019 13:30 1.1 48 0 1001.1
Sant'Anna di Vinadio 08-11-2019 13:40 0.8 50 0 1001.1
Sant'Anna di Vinadio 08-11-2019 13:50 0.8 51 0 1001.1
Sant'Anna di Vinadio 08-11-2019 14:00 0.8 49 0 1001
Sant'Anna di Vinadio 08-11-2019 14:10 0.7 48 0 1001.1
Sant'Anna di Vinadio 08-11-2019 14:20 0.5 52 0 1001.1
Sant'Anna di Vinadio 08-11-2019 14:30 0.3 52 0 1001.2
Sant'Anna di Vinadio 08-11-2019 14:40 0.5 50 0 1001.3
Sant'Anna di Vinadio 08-11-2019 14:50 0.5 50 0 1001.3
Sant'Anna di Vinadio 08-11-2019 15:00 0.2 52 0 1001.3
Sant'Anna di Vinadio 08-11-2019 15:10 0.2 52 0 1001.3
Sant'Anna di Vinadio 08-11-2019 15:20 0.1 50 0 1001.2
Sant'Anna di Vinadio 08-11-2019 15:30 -0.2 51 0 1001.3
Sant'Anna di Vinadio 08-11-2019 15:40 -0.2 50 0 1001.4
Sant'Anna di Vinadio 08-11-2019 15:50 -0.4 52 0 1001.4
Sant'Anna di Vinadio 08-11-2019 16:00 -0.7 52 0 1001.5
Sant'Anna di Vinadio 08-11-2019 16:10 -0.7 52 0 1001.5
Sant'Anna di Vinadio 08-11-2019 16:20 -0.8 53 0 1001.5
Sant'Anna di Vinadio 08-11-2019 16:30 -1 55 0 1001.7
Sant'Anna di Vinadio 08-11-2019 16:40 -1.2 58 0 1001.9
Sant'Anna di Vinadio 08-11-2019 16:50 -1.5 77 0 1002
Sant'Anna di Vinadio 08-11-2019 17:00 -1.9 79 0 1002.1
Sant'Anna di Vinadio 08-11-2019 17:10 -1.9 78 0 1002.1
Sant'Anna di Vinadio 08-11-2019 17:20 -2 77 0 1002.2
Sant'Anna di Vinadio 08-11-2019 17:30 -1.9 77 0 1002.3
Sant'Anna di Vinadio 08-11-2019 17:40 -1.9 76 0 1002.4
Sant'Anna di Vinadio 08-11-2019 17:50 -2 72 0 1002.4
Sant'Anna di Vinadio 08-11-2019 18:00 -2 75 0 1002.4
Sant'Anna di Vinadio 08-11-2019 18:10 -2.2 75 0 1002.5
Sant'Anna di Vinadio 08-11-2019 18:20 -2.2 69 0 1002.5
Sant'Anna di Vinadio 08-11-2019 18:30 -2.2 69 0 1002.7
Sant'Anna di Vinadio 08-11-2019 18:40 -2.5 68 0 1002.7
Sant'Anna di Vinadio 08-11-2019 18:50 -2.5 70 0 1002.8
Sant'Anna di Vinadio 08-11-2019 19:00 -2.4 69 0 1002.8
Sant'Anna di Vinadio 08-11-2019 19:10 -2.3 63 0 1002.7
Sant'Anna di Vinadio 08-11-2019 19:20 -2.4 64 0 1002.6
Sant'Anna di Vinadio 08-11-2019 19:30 -2.7 68 0 1002.7
Sant'Anna di Vinadio 08-11-2019 19:40 -2.7 69 0 1002.7
Sant'Anna di Vinadio 08-11-2019 19:50 -2.9 66 0 1002.8
Sant'Anna di Vinadio 08-11-2019 20:00 -2.8 65 0 1002.9
Sant'Anna di Vinadio 08-11-2019 20:10 -2.8 66 0 1003
Sant'Anna di Vinadio 08-11-2019 20:20 -3.1 68 0 1003.1
Sant'Anna di Vinadio 08-11-2019 20:30 -3 69 0 1003.1
Sant'Anna di Vinadio 08-11-2019 20:40 -3 71 0 1003.1
Sant'Anna di Vinadio 08-11-2019 20:50 -3.1 71 0 1003.2
Sant'Anna di Vinadio 08-11-2019 21:00 -3.2 67 0 1003.3
Sant'Anna di Vinadio 08-11-2019 21:10 -3 69 0 1003.4
Sant'Anna di Vinadio 08-11-2019 21:20 -3 68 0 1003.5
Sant'Anna di Vinadio 08-11-2019 21:30 -3.2 69 0 1003.6
Sant'Anna di Vinadio 08-11-2019 21:40 -3 69 0 1003.6
Sant'Anna di Vinadio 08-11-2019 21:50 -3 69 0 1003.6
Sant'Anna di Vinadio 08-11-2019 22:00 -3 67 0 1003.7
Sant'Anna di Vinadio 08-11-2019 22:10 -3.1 68 0 1003.7
Sant'Anna di Vinadio 08-11-2019 22:20 -3.2 67 0 1003.7
Sant'Anna di Vinadio 08-11-2019 22:30 -3.2 67 0 1003.8
Sant'Anna di Vinadio 08-11-2019 22:40 -3.4 69 0 1003.9
Sant'Anna di Vinadio 08-11-2019 22:50 -3.7 70 0 1003.9
Sant'Anna di Vinadio 08-11-2019 23:00 -3.7 71 0 1003.9
Sant'Anna di Vinadio 08-11-2019 23:10 -3.6 70 0 1003.8
Sant'Anna di Vinadio 08-11-2019 23:20 -3.6 69 0 1003.9
Sant'Anna di Vinadio 08-11-2019 23:30 -3.9 71 0 1004
Sant'Anna di Vinadio 08-11-2019 23:40 -3.8 74 0 1004.1
Sant'Anna di Vinadio 08-11-2019 23:50 -3.7 75 0 1004
Sant'Anna di Vinadio 09-11-2019 00:00 -3.7 75 0 1004.1
Sant'Anna di Vinadio 09-11-2019 00:10 -4 75 0 1004.1
Sant'Anna di Vinadio 09-11-2019 00:20 -4.1 75 0 1004.1
Sant'Anna di Vinadio 09-11-2019 00:30 -4 75 0 1004.2
Sant'Anna di Vinadio 09-11-2019 00:40 -3.7 74 0 1004.1
Sant'Anna di Vinadio 09-11-2019 00:50 -3.4 71 0 1004
Sant'Anna di Vinadio 09-11-2019 01:00 -2.8 67 0 1003.9
Sant'Anna di Vinadio 09-11-2019 01:10 -2.3 64 0 1003.9
Sant'Anna di Vinadio 09-11-2019 01:20 -2.4 62 0 1003.9
Sant'Anna di Vinadio 09-11-2019 01:30 -2.4 62 0 1003.9
Sant'Anna di Vinadio 09-11-2019 01:40 -2.7 64 0 1003.9
Sant'Anna di Vinadio 09-11-2019 01:50 -3.1 65 0 1003.9
Sant'Anna di Vinadio 09-11-2019 02:00 -2.8 65 0 1003.9
Sant'Anna di Vinadio 09-11-2019 02:10 -2.7 64 0 1003.9
Sant'Anna di Vinadio 09-11-2019 02:20 -2.7 64 0 1003.9
Sant'Anna di Vinadio 09-11-2019 02:30 -2.7 61 0 1004
Sant'Anna di Vinadio 09-11-2019 02:40 -2.5 62 0 1004
Sant'Anna di Vinadio 09-11-2019 02:50 -2.4 59 0 1003.9
Sant'Anna di Vinadio 09-11-2019 03:00 -2.5 54 0 1003.9
Sant'Anna di Vinadio 09-11-2019 03:10 -2.4 48 0 1003.8
Sant'Anna di Vinadio 09-11-2019 03:20 -2.3 45 0 1003.8
Sant'Anna di Vinadio 09-11-2019 03:30 -2.2 43 0 1003.8
Sant'Anna di Vinadio 09-11-2019 03:40 -2.1 36 0 1003.8
Sant'Anna di Vinadio 09-11-2019 03:50 -2 35 0 1003.8
Sant'Anna di Vinadio 09-11-2019 04:00 -2.3 37 0 1003.9
Sant'Anna di Vinadio 09-11-2019 04:10 -2.5 39 0 1004
Sant'Anna di Vinadio 09-11-2019 04:20 -2.6 39 0 1004.1
Sant'Anna di Vinadio 09-11-2019 04:30 -2.6 38 0 1004.2
Sant'Anna di Vinadio 09-11-2019 04:40 -2.5 36 0 1004.3
Sant'Anna di Vinadio 09-11-2019 04:50 -2.7 42 0 1004.4
Sant'Anna di Vinadio 09-11-2019 05:00 -2.8 48 0 1004.6
Sant'Anna di Vinadio 09-11-2019 05:10 -2.6 54 0 1004.7
Sant'Anna di Vinadio 09-11-2019 05:20 -2.5 58 0 1004.8
Sant'Anna di Vinadio 09-11-2019 05:30 -2.5 60 0 1005
Sant'Anna di Vinadio 09-11-2019 05:40 -2.7 62 0 1005
Sant'Anna di Vinadio 09-11-2019 05:50 -2.8 62 0 1005.1
Sant'Anna di Vinadio 09-11-2019 06:00 -2.9 63 0 1005.2
Sant'Anna di Vinadio 09-11-2019 06:10 -2.9 64 0 1005.2
Sant'Anna di Vinadio 09-11-2019 06:20 -3 64 0 1005.2
Sant'Anna di Vinadio 09-11-2019 06:30 -3.5 65 0 1005.3
Sant'Anna di Vinadio 09-11-2019 06:40 -3.5 65 0 1005.3
Sant'Anna di Vinadio 09-11-2019 06:50 -3.5 62 0 1005.3
Sant'Anna di Vinadio 09-11-2019 07:00 -3.6 62 0 1005.3
Sant'Anna di Vinadio 09-11-2019 07:10 -3.6 60 0 1005.4
Sant'Anna di Vinadio 09-11-2019 07:20 -3.8 59 0 1005.6
Sant'Anna di Vinadio 09-11-2019 07:30 -3.5 54 0 1005.6
Sant'Anna di Vinadio 09-11-2019 07:40 -3.5 55 0 1005.6
Sant'Anna di Vinadio 09-11-2019 07:50 -3.5 55 0 1005.7
Sant'Anna di Vinadio 09-11-2019 08:00 -3.4 53 0 1005.7
Sant'Anna di Vinadio 09-11-2019 08:10 -3.4 50 0 1005.8
Sant'Anna di Vinadio 09-11-2019 08:20 -2.2 50 0 1005.9
Sant'Anna di Vinadio 09-11-2019 08:30 -1.1 46 0 1006
Sant'Anna di Vinadio 09-11-2019 08:40 0 44 0 1006
Sant'Anna di Vinadio 09-11-2019 08:50 0.6 44 0 1006
Sant'Anna di Vinadio 09-11-2019 09:00 0.7 45 0 1006.1
Sant'Anna di Vinadio 09-11-2019 09:10 0.8 44 0 1006
Sant'Anna di Vinadio 09-11-2019 09:20 0.6 44 0 1006.1
Sant'Anna di Vinadio 09-11-2019 09:30 0.9 42 0 1006.2
Sant'Anna di Vinadio 09-11-2019 09:40 0.8 43 0 1006.4
Sant'Anna di Vinadio 09-11-2019 09:50 0.5 41 0 1006.4
Sant'Anna di Vinadio 09-11-2019 10:00 0.5 41 0 1006.6
Sant'Anna di Vinadio 09-11-2019 10:10 0.4 40 0 1006.7
Sant'Anna di Vinadio 09-11-2019 10:20 1.1 40 0 1006.8
Sant'Anna di Vinadio 09-11-2019 10:30 1.8 36 0 1006.9
Sant'Anna di Vinadio 09-11-2019 10:40 2 34 0 1006.9
Sant'Anna di Vinadio 09-11-2019 10:50 2.2 34 0 1007.1
Sant'Anna di Vinadio 09-11-2019 11:00 3.7 32 0 1007.1
Sant'Anna di Vinadio 09-11-2019 11:10 3 32 0 1007
Sant'Anna di Vinadio 09-11-2019 11:20 2.7 31 0 1007
Sant'Anna di Vinadio 09-11-2019 11:30 3.2 32 0 1007
Sant'Anna di Vinadio 09-11-2019 11:40 4.2 30 0 1007
Sant'Anna di Vinadio 09-11-2019 11:50 2.4 34 0 1007
Sant'Anna di Vinadio 09-11-2019 12:00 2.2 34 0 1006.8
Sant'Anna di Vinadio 09-11-2019 12:10 2.3 31 0 1006.7
Sant'Anna di Vinadio 09-11-2019 12:20 3.4 31 0 1006.6
Sant'Anna di Vinadio 09-11-2019 12:30 3.4 32 0 1006.5
Sant'Anna di Vinadio 09-11-2019 12:40 3.2 34 0 1006.5
Sant'Anna di Vinadio 09-11-2019 12:50 3.1 39 0 1006.4
Sant'Anna di Vinadio 09-11-2019 13:00 2.4 38 0 1006.3
Sant'Anna di Vinadio 09-11-2019 13:10 2.4 40 0 1006.4
Sant'Anna di Vinadio 09-11-2019 13:20 2 42 0 1006.4
Sant'Anna di Vinadio 09-11-2019 13:30 1.7 43 0 1006.4
Sant'Anna di Vinadio 09-11-2019 13:40 1.8 42 0 1006.4
Sant'Anna di Vinadio 09-11-2019 13:50 1.8 42 0 1006.3
Sant'Anna di Vinadio 09-11-2019 14:00 1.8 42 0 1006.3
Sant'Anna di Vinadio 09-11-2019 14:10 1.5 43 0 1006.3
Sant'Anna di Vinadio 09-11-2019 14:20 1.5 44 0 1006.3
Sant'Anna di Vinadio 09-11-2019 14:30 1.1 45 0 1006.3
Sant'Anna di Vinadio 09-11-2019 14:40 1 44 0 1006.2
Sant'Anna di Vinadio 09-11-2019 14:50 0.9 45 0 1006.2
Sant'Anna di Vinadio 09-11-2019 15:00 0.8 49 0 1006.3
Sant'Anna di Vinadio 09-11-2019 15:10 0.4 52 0 1006.3
Sant'Anna di Vinadio 09-11-2019 15:20 0.1 52 0 1006.3
Sant'Anna di Vinadio 09-11-2019 15:30 0 52 0 1006.3
Sant'Anna di Vinadio 09-11-2019 15:40 -0.1 53 0 1006.4
Sant'Anna di Vinadio 09-11-2019 15:50 -0.3 52 0 1006.4
Sant'Anna di Vinadio 09-11-2019 16:00 -0.3 54 0 1006.3
Sant'Anna di Vinadio 09-11-2019 16:10 -0.3 55 0 1006.4
Sant'Anna di Vinadio 09-11-2019 16:20 -0.4 56 0 1006.4
Sant'Anna di Vinadio 09-11-2019 16:30 -0.5 56 0 1006.4
Sant'Anna di Vinadio 09-11-2019 16:40 -0.6 57 0 1006.4
Sant'Anna di Vinadio 09-11-2019 16:50 -0.7 57 0 1006.3
Sant'Anna di Vinadio 09-11-2019 17:00 -0.8 60 0 1006.4
Sant'Anna di Vinadio 09-11-2019 17:10 -0.8 62 0 1006.4
Sant'Anna di Vinadio 09-11-2019 17:20 -0.9 62 0 1006.5
Sant'Anna di Vinadio 09-11-2019 17:30 -0.9 62 0 1006.5
Sant'Anna di Vinadio 09-11-2019 17:40 -1 62 0 1006.6
Sant'Anna di Vinadio 09-11-2019 17:50 -1 61 0 1006.8
Sant'Anna di Vinadio 09-11-2019 18:00 -1 63 0 1006.8
Sant'Anna di Vinadio 09-11-2019 18:10 -1.2 63 0 1006.8
Sant'Anna di Vinadio 09-11-2019 18:20 -1.2 62 0 1006.9
Sant'Anna di Vinadio 09-11-2019 18:30 -1.2 62 0 1006.9
Sant'Anna di Vinadio 09-11-2019 18:40 -1.3 63 0 1006.9
Sant'Anna di Vinadio 09-11-2019 18:50 -1.4 65 0 1006.9
Sant'Anna di Vinadio 09-11-2019 19:00 -1.5 68 0 1006.9
Sant'Anna di Vinadio 09-11-2019 19:10 -2 68 0 1006.9
Sant'Anna di Vinadio 09-11-2019 19:20 -2 67 0 1006.9
Sant'Anna di Vinadio 09-11-2019 19:30 -2.1 67 0 1006.9
Sant'Anna di Vinadio 09-11-2019 19:40 -2.2 66 0 1006.8
Sant'Anna di Vinadio 09-11-2019 19:50 -2.1 66 0 1006.8
Sant'Anna di Vinadio 09-11-2019 20:00 -2 66 0 1006.9
Sant'Anna di Vinadio 09-11-2019 20:10 -2 66 0 1006.9
Sant'Anna di Vinadio 09-11-2019 20:20 -2.2 69 0 1006.9
Sant'Anna di Vinadio 09-11-2019 20:30 -2.3 69 0 1006.9
Sant'Anna di Vinadio 09-11-2019 20:40 -2.3 68 0 1006.8
Sant'Anna di Vinadio 09-11-2019 20:50 -2.3 67 0 1006.8
Sant'Anna di Vinadio 09-11-2019 21:00 -2.3 67 0 1006.9
Sant'Anna di Vinadio 09-11-2019 21:10 -2.3 67 0 1006.9
Sant'Anna di Vinadio 09-11-2019 21:20 -2.5 68 0 1006.9
Sant'Anna di Vinadio 09-11-2019 21:30 -2.5 67 0 1006.8
Sant'Anna di Vinadio 09-11-2019 21:40 -2.4 64 0 1006.8
Sant'Anna di Vinadio 09-11-2019 21:50 -2.5 63 0 1006.7
Sant'Anna di Vinadio 09-11-2019 22:00 -2.5 63 0 1006.7
Sant'Anna di Vinadio 09-11-2019 22:10 -2.6 67 0 1006.6
Sant'Anna di Vinadio 09-11-2019 22:20 -2.8 66 0 1006.7
Sant'Anna di Vinadio 09-11-2019 22:30 -2.8 66 0 1006.6
Sant'Anna di Vinadio 09-11-2019 22:40 -2.8 69 0 1006.6
Sant'Anna di Vinadio 09-11-2019 22:50 -2.8 70 0 1006.6
Sant'Anna di Vinadio 09-11-2019 23:00 -2.7 69 0 1006.5
Sant'Anna di Vinadio 09-11-2019 23:10 -2.6 67 0 1006.5
Sant'Anna di Vinadio 09-11-2019 23:20 -2.7 66 0 1006.4
Sant'Anna di Vinadio 09-11-2019 23:30 -2.8 68 0 1006.4
Sant'Anna di Vinadio 09-11-2019 23:40 -2.9 68 0 1006.4
Sant'Anna di Vinadio 09-11-2019 23:50 -3 69 0 1006.4
Sant'Anna di Vinadio 10-11-2019 00:00 -3 69 0 1006.4
Sant'Anna di Vinadio 10-11-2019 00:10 -2.8 68 0 1006.4
Sant'Anna di Vinadio 10-11-2019 00:20 -2.8 68 0 1006.4
Sant'Anna di Vinadio 10-11-2019 00:30 -2.8 67 0 1006.3
Sant'Anna di Vinadio 10-11-2019 00:40 -2.8 67 0 1006.2
Sant'Anna di Vinadio 10-11-2019 00:50 -2.7 65 0 1006.2
Sant'Anna di Vinadio 10-11-2019 01:00 -2.7 64 0 1006.1
Sant'Anna di Vinadio 10-11-2019 01:10 -2.8 64 0 1006.1
Sant'Anna di Vinadio 10-11-2019 01:20 -2.7 64 0 1006.1
Sant'Anna di Vinadio 10-11-2019 01:30 -2.9 67 0 1006.1
Sant'Anna di Vinadio 10-11-2019 01:40 -3.1 67 0 1006
Sant'Anna di Vinadio 10-11-2019 01:50 -3.2 65 0 1006
Sant'Anna di Vinadio 10-11-2019 02:00 -3.2 65 0 1005.9
Sant'Anna di Vinadio 10-11-2019 02:10 -3.3 64 0 1005.8
Sant'Anna di Vinadio 10-11-2019 02:20 -3.4 66 0 1005.6
Sant'Anna di Vinadio 10-11-2019 02:30 -3.5 66 0 1005.6
Sant'Anna di Vinadio 10-11-2019 02:40 -3.6 63 0 1005.6
Sant'Anna di Vinadio 10-11-2019 02:50 -3.7 62 0 1005.4
Sant'Anna di Vinadio 10-11-2019 03:00 -3.6 61 0 1005.4
Sant'Anna di Vinadio 10-11-2019 03:10 -3.6 60 0 1005.4
Sant'Anna di Vinadio 10-11-2019 03:20 -3.6 59 0 1005.4
Sant'Anna di Vinadio 10-11-2019 03:30 -4 61 0 1005.3
Sant'Anna di Vinadio 10-11-2019 03:40 -4.2 62 0 1005.3
Sant'Anna di Vinadio 10-11-2019 03:50 -4.5 65 0 1005.2
Sant'Anna di Vinadio 10-11-2019 04:00 -4.5 66 0 1005.1
Sant'Anna di Vinadio 10-11-2019 04:10 -4.4 66 0 1004.9
Sant'Anna di Vinadio 10-11-2019 04:20 -4.4 66 0 1005
Sant'Anna di Vinadio 10-11-2019 04:30 -4.5 67 0 1005.1
Sant'Anna di Vinadio 10-11-2019 04:40 -4.5 66 0 1005.1
Sant'Anna di Vinadio 10-11-2019 04:50 -4.6 67 0 1005
Sant'Anna di Vinadio 10-11-2019 05:00 -4.7 70 0 1005
Sant'Anna di Vinadio 10-11-2019 05:10 -4.6 75 0 1005.1
Sant'Anna di Vinadio 10-11-2019 05:20 -4.6 77 0 1005.1
Sant'Anna di Vinadio 10-11-2019 05:30 -4.7 80 0 1005
Sant'Anna di Vinadio 10-11-2019 05:40 -4.7 80 0 1005
Sant'Anna di Vinadio 10-11-2019 05:50 -4.4 79 0 1004.9
Sant'Anna di Vinadio 10-11-2019 06:00 -4.4 74 0 1004.9
Sant'Anna di Vinadio 10-11-2019 06:10 -4.3 73 0 1004.9
Sant'Anna di Vinadio 10-11-2019 06:20 -4.3 74 0 1004.9
Sant'Anna di Vinadio 10-11-2019 06:30 -4.4 75 0 1005
Sant'Anna di Vinadio 10-11-2019 06:40 -4.4 75 0 1005
Sant'Anna di Vinadio 10-11-2019 06:50 -4.4 76 0 1004.9
Sant'Anna di Vinadio 10-11-2019 07:00 -4.6 78 0 1004.9
Sant'Anna di Vinadio 10-11-2019 07:10 -4.6 82 0 1004.9
Sant'Anna di Vinadio 10-11-2019 07:20 -4.5 86 0 1005
Sant'Anna di Vinadio 10-11-2019 07:30 -4.5 88 0 1005.1
Sant'Anna di Vinadio 10-11-2019 07:40 -4.6 92 0 1005.2
Sant'Anna di Vinadio 10-11-2019 07:50 -4.5 93 0 1005.3
Sant'Anna di Vinadio 10-11-2019 08:00 -4.5 93 0 1005.4
Sant'Anna di Vinadio 10-11-2019 08:10 -4.4 93 0 1005.5
Sant'Anna di Vinadio 10-11-2019 08:20 -4.5 93 0 1005.6
Sant'Anna di Vinadio 10-11-2019 08:30 -4.4 93 0 1005.6
Sant'Anna di Vinadio 10-11-2019 08:40 -4.4 92 0 1005.6
Sant'Anna di Vinadio 10-11-2019 08:50 -4.2 91 0 1005.7
Sant'Anna di Vinadio 10-11-2019 09:00 -4.3 92 0 1005.7
Sant'Anna di Vinadio 10-11-2019 09:10 -4.2 93 0 1005.8
Sant'Anna di Vinadio 10-11-2019 09:20 -4 94 0 1005.8
Sant'Anna di Vinadio 10-11-2019 09:30 -3.9 95 0 1005.8
Sant'Anna di Vinadio 10-11-2019 09:40 -3.9 96 0 1005.7
Sant'Anna di Vinadio 10-11-2019 09:50 -3.8 96 0 1005.8
Sant'Anna di Vinadio 10-11-2019 10:00 -3.9 95 0 1005.9
Sant'Anna di Vinadio 10-11-2019 10:10 -3.7 95 0 1006
Sant'Anna di Vinadio 10-11-2019 10:20 -3.8 95 0 1006
Sant'Anna di Vinadio 10-11-2019 10:30 -3.8 95 0 1006
Sant'Anna di Vinadio 10-11-2019 10:40 -3.7 95 0 1006
Sant'Anna di Vinadio 10-11-2019 10:50 -3.7 95 0 1006.1
Sant'Anna di Vinadio 10-11-2019 11:00 -3.8 95 0 1006.1
Sant'Anna di Vinadio 10-11-2019 11:10 -3.7 95 0 1006.2
Sant'Anna di Vinadio 10-11-2019 11:20 -3.7 95 0 1006.2
Sant'Anna di Vinadio 10-11-2019 11:30 -3.8 95 0 1006.2
Sant'Anna di Vinadio 10-11-2019 11:40 -3.8 95 0 1006.3
Sant'Anna di Vinadio 10-11-2019 11:50 -3.8 95 0 1006.3
Sant'Anna di Vinadio 10-11-2019 12:00 -3.8 95 0 1006.3
Sant'Anna di Vinadio 10-11-2019 12:10 -3.9 95 0 1006.3
Sant'Anna di Vinadio 10-11-2019 12:20 -3.8 94 0 1006.3
Sant'Anna di Vinadio 10-11-2019 12:30 -3.8 94 0 1006.2
Sant'Anna di Vinadio 10-11-2019 12:40 -3.8 94 0 1006.3
Sant'Anna di Vinadio 10-11-2019 12:50 -3.7 94 0 1006.2
Sant'Anna di Vinadio 10-11-2019 13:00 -3.5 93 0 1006.2
Sant'Anna di Vinadio 10-11-2019 13:10 -3.5 93 0 1006.2
Sant'Anna di Vinadio 10-11-2019 13:20 -3.5 93 0 1006.2
Sant'Anna di Vinadio 10-11-2019 13:30 -3.5 93 0 1006.2
Sant'Anna di Vinadio 10-11-2019 13:40 -3.5 93 0 1006.2
Sant'Anna di Vinadio 10-11-2019 13:50 -3.6 93 0 1006.2
Sant'Anna di Vinadio 10-11-2019 14:00 -3.7 94 0 1006.1
Sant'Anna di Vinadio 10-11-2019 14:10 -3.7 94 0 1006.2
Sant'Anna di Vinadio 10-11-2019 14:20 -3.7 94 0 1006.2
Sant'Anna di Vinadio 10-11-2019 14:30 -3.6 93 0 1006.1
Sant'Anna di Vinadio 10-11-2019 14:40 -3.6 93 0 1006.1
Sant'Anna di Vinadio 10-11-2019 14:50 -3.6 94 0 1006.2
Sant'Anna di Vinadio 10-11-2019 15:00 -3.6 93 0 1006.2
Sant'Anna di Vinadio 10-11-2019 15:10 -3.6 93 0 1006.2
Sant'Anna di Vinadio 10-11-2019 15:20 -3.6 93 0 1006.3
Sant'Anna di Vinadio 10-11-2019 15:30 -3.6 93 0 1006.4
Sant'Anna di Vinadio 10-11-2019 15:40 -3.6 93 0 1006.4
Sant'Anna di Vinadio 10-11-2019 15:50 -3.6 94 0 1006.5
Sant'Anna di Vinadio 10-11-2019 16:00 -3.7 94 0 1006.7
Sant'Anna di Vinadio 10-11-2019 16:10 -3.7 94 0 1006.8
Sant'Anna di Vinadio 10-11-2019 16:20 -3.8 93 0 1006.8
Sant'Anna di Vinadio 10-11-2019 16:30 -3.8 94 0 1007
Sant'Anna di Vinadio 10-11-2019 16:40 -4 93 0 1007.1
Sant'Anna di Vinadio 10-11-2019 16:50 -4.1 93 0 1007.1
Sant'Anna di Vinadio 10-11-2019 17:00 -4.2 93 0 1007.1
Sant'Anna di Vinadio 10-11-2019 17:10 -4.2 93 0 1007.1
Sant'Anna di Vinadio 10-11-2019 17:20 -4.2 92 0 1007.2
Sant'Anna di Vinadio 10-11-2019 17:30 -4.2 93 0 1007.4
Sant'Anna di Vinadio 10-11-2019 17:40 -4.2 92 0 1007.4
Sant'Anna di Vinadio 10-11-2019 17:50 -4.2 92 0 1007.4
Sant'Anna di Vinadio 10-11-2019 18:00 -4.1 92 0 1007.5
Sant'Anna di Vinadio 10-11-2019 18:10 -4.1 93 0 1007.6
Sant'Anna di Vinadio 10-11-2019 18:20 -4.1 93 0 1007.7
Sant'Anna di Vinadio 10-11-2019 18:30 -4.1 93 0 1007.9
Sant'Anna di Vinadio 10-11-2019 18:40 -4 93 0 1008
Sant'Anna di Vinadio 10-11-2019 18:50 -3.8 93 0 1008.1
Sant'Anna di Vinadio 10-11-2019 19:00 -4 93 0 1008.3
Sant'Anna di Vinadio 10-11-2019 19:10 -4 93 0 1008.4
Sant'Anna di Vinadio 10-11-2019 19:20 -4 93 0 1008.5
Sant'Anna di Vinadio 10-11-2019 19:30 -4 93 0 1008.7
Sant'Anna di Vinadio 10-11-2019 19:40 -4 93 0 1008.7
Sant'Anna di Vinadio 10-11-2019 19:50 -4 93 0.1 1008.7
Sant'Anna di Vinadio 10-11-2019 20:00 -4.1 93 0 1008.8
Sant'Anna di Vinadio 10-11-2019 20:10 -4.1 93 0 1008.7
Sant'Anna di Vinadio 10-11-2019 20:20 -4.1 93 0 1008.8
Sant'Anna di Vinadio 10-11-2019 20:30 -4.1 93 0 1008.9
Sant'Anna di Vinadio 10-11-2019 20:40 -4.1 93 0 1008.9
Sant'Anna di Vinadio 10-11-2019 20:50 -4.1 93 0 1008.9
Sant'Anna di Vinadio 10-11-2019 21:00 -4.2 92 0 1009.2
Sant'Anna di Vinadio 10-11-2019 21:10 -4.2 92 0 1009.2
Sant'Anna di Vinadio 10-11-2019 21:20 -4.2 92 0 1009.4
Sant'Anna di Vinadio 10-11-2019 21:30 -4.2 92 0 1009.5
Sant'Anna di Vinadio 10-11-2019 21:40 -4.3 92 0 1009.6
Sant'Anna di Vinadio 10-11-2019 21:50 -4.2 92 0 1009.7
Sant'Anna di Vinadio 10-11-2019 22:00 -4.2 92 0 1009.7
Sant'Anna di Vinadio 10-11-2019 22:10 -4.2 92 0 1009.8
Sant'Anna di Vinadio 10-11-2019 22:20 -4.2 92 0 1009.8
Sant'Anna di Vinadio 10-11-2019 22:30 -4.2 92 0 1010
Sant'Anna di Vinadio 10-11-2019 22:40 -4.2 92 0 1010.1
Sant'Anna di Vinadio 10-11-2019 22:50 -4.2 92 0 1010.1
Sant'Anna di Vinadio 10-11-2019 23:00 -4.2 92 0 1010.1
Sant'Anna di Vinadio 10-11-2019 23:10 -4.2 92 0 1010.1
Sant'Anna di Vinadio 10-11-2019 23:20 -4.2 92 0 1010.2
Sant'Anna di Vinadio 10-11-2019 23:30 -4.2 92 0 1010.2
Sant'Anna di Vinadio 10-11-2019 23:40 -4.2 92 0 1010.2
Sant'Anna di Vinadio 10-11-2019 23:50 -4.2 92 0 1010.3
Sant'Anna di Vinadio 11-11-2019 00:00 -4.2 92 0 1010.5
Sant'Anna di Vinadio 11-11-2019 00:10 -4.2 92 0 1010.6
Sant'Anna di Vinadio 11-11-2019 00:20 -4.2 92 0 1010.7
Sant'Anna di Vinadio 11-11-2019 00:30 -4.2 92 0 1010.8
Sant'Anna di Vinadio 11-11-2019 00:40 -4.2 92 0 1010.9
Sant'Anna di Vinadio 11-11-2019 00:50 -4.2 92 0 1010.7
Sant'Anna di Vinadio 11-11-2019 01:00 -4.2 92 0 1010.7
Sant'Anna di Vinadio 11-11-2019 01:10 -4.2 92 0 1010.9
Sant'Anna di Vinadio 11-11-2019 01:20 -4.2 92 0 1010.9
Sant'Anna di Vinadio 11-11-2019 01:30 -4.3 91 0 1010.6
Sant'Anna di Vinadio 11-11-2019 01:40 -4.3 91 0 1010.6
Sant'Anna di Vinadio 11-11-2019 01:50 -4.3 91 0 1010.6
Sant'Anna di Vinadio 11-11-2019 02:00 -4.4 91 0 1010.6
Sant'Anna di Vinadio 11-11-2019 02:10 -4.4 91 0 1010.8
Sant'Anna di Vinadio 11-11-2019 02:20 -4.4 91 0 1010.8
Sant'Anna di Vinadio 11-11-2019 02:30 -4.4 91 0 1010.8
Sant'Anna di Vinadio 11-11-2019 02:40 -4.4 91 0 1010.7
Sant'Anna di Vinadio 11-11-2019 02:50 -4.5 91 0 1010.7
Sant'Anna di Vinadio 11-11-2019 03:00 -4.5 91 0 1010.8
Sant'Anna di Vinadio 11-11-2019 03:10 -4.6 91 0 1010.8
Sant'Anna di Vinadio 11-11-2019 03:20 -4.6 90 0 1010.8
Sant'Anna di Vinadio 11-11-2019 03:30 -4.6 90 0 1010.9
Sant'Anna di Vinadio 11-11-2019 03:40 -4.6 90 0 1010.8
Sant'Anna di Vinadio 11-11-2019 03:50 -4.7 90 0 1010.7
Sant'Anna di Vinadio 11-11-2019 04:00 -4.7 90 0 1010.8
Sant'Anna di Vinadio 11-11-2019 04:10 -4.7 90 0 1010.7
Sant'Anna di Vinadio 11-11-2019 04:20 -4.7 90 0 1010.7
Sant'Anna di Vinadio 11-11-2019 04:30 -4.7 90 0 1010.7
Sant'Anna di Vinadio 11-11-2019 04:40 -4.7 90 0 1010.6
Sant'Anna di Vinadio 11-11-2019 04:50 -4.8 90 0 1010.7
Sant'Anna di Vinadio 11-11-2019 05:00 -4.8 90 0 1010.7
Sant'Anna di Vinadio 11-11-2019 05:10 -4.8 89 0 1010.6
Sant'Anna di Vinadio 11-11-2019 05:20 -4.8 89 0 1010.5
Sant'Anna di Vinadio 11-11-2019 05:30 -4.8 89 0 1010.5
Sant'Anna di Vinadio 11-11-2019 05:40 -4.8 88 0 1010.5
Sant'Anna di Vinadio 11-11-2019 05:50 -4.8 88 0 1010.4
Sant'Anna di Vinadio 11-11-2019 06:00 -4.8 88 0 1010.3
Sant'Anna di Vinadio 11-11-2019 06:10 -4.8 88 0 1010.2
Sant'Anna di Vinadio 11-11-2019 06:20 -4.8 88 0 1010.2
Sant'Anna di Vinadio 11-11-2019 06:30 -4.8 88 0 1010.4
Sant'Anna di Vinadio 11-11-2019 06:40 -4.8 88 0 1010.4
Sant'Anna di Vinadio 11-11-2019 06:50 -4.8 87 0 1010.5
Sant'Anna di Vinadio 11-11-2019 07:00 -4.7 87 0 1010.6
Sant'Anna di Vinadio 11-11-2019 07:10 -4.7 87 0 1010.6
Sant'Anna di Vinadio 11-11-2019 07:20 -4.7 88 0 1010.7
Sant'Anna di Vinadio 11-11-2019 07:30 -4.7 88 0 1010.7
Sant'Anna di Vinadio 11-11-2019 07:40 -4.7 88 0 1010.8
Sant'Anna di Vinadio 11-11-2019 07:50 -4.7 88 0 1010.8
Sant'Anna di Vinadio 11-11-2019 08:00 -4.7 88 0 1010.8
Sant'Anna di Vinadio 11-11-2019 08:10 -4.7 88 0 1010.7
Sant'Anna di Vinadio 11-11-2019 08:20 -4.7 88 0 1010.8
Sant'Anna di Vinadio 11-11-2019 08:30 -4.7 87 0 1010.7
Sant'Anna di Vinadio 11-11-2019 08:40 -4.7 87 0 1010.8
Sant'Anna di Vinadio 11-11-2019 08:50 -4.6 87 0 1010.8
Sant'Anna di Vinadio 11-11-2019 09:00 -4.5 87 0 1010.8
Sant'Anna di Vinadio 11-11-2019 09:10 -4.4 87 0 1010.7
Sant'Anna di Vinadio 11-11-2019 09:20 -4 87 0 1010.6
Sant'Anna di Vinadio 11-11-2019 09:30 -4 87 0 1010.4
Sant'Anna di Vinadio 11-11-2019 09:40 -4.1 87 0 1010.4
Sant'Anna di Vinadio 11-11-2019 09:50 -4.2 87 0 1010.5
Sant'Anna di Vinadio 11-11-2019 10:00 -4.2 86 0 1010.5
Sant'Anna di Vinadio 11-11-2019 10:10 -4.2 86 0 1010.5
Sant'Anna di Vinadio 11-11-2019 10:20 -4.2 84 0 1010.5
Sant'Anna di Vinadio 11-11-2019 10:30 -4 84 0 1010.5
Sant'Anna di Vinadio 11-11-2019 10:40 -4 84 0 1010.4
Sant'Anna di Vinadio 11-11-2019 10:50 -3.8 83 0 1010.2
Sant'Anna di Vinadio 11-11-2019 11:00 -3.6 84 0 1010.2
Sant'Anna di Vinadio 11-11-2019 11:10 -3.7 84 0.1 1010
Sant'Anna di Vinadio 11-11-2019 11:20 -3.5 84 0 1009.9
Sant'Anna di Vinadio 11-11-2019 11:30 -3.5 84 0 1009.6
Sant'Anna di Vinadio 11-11-2019 11:40 -3.3 84 0 1009.5
Sant'Anna di Vinadio 11-11-2019 11:50 -3.3 83 0 1009.4
Sant'Anna di Vinadio 11-11-2019 12:00 -3.4 83 0 1009.3
Sant'Anna di Vinadio 11-11-2019 12:10 -3.4 83 0 1009.3
Sant'Anna di Vinadio 11-11-2019 12:20 -3.8 82 0 1009.3
Sant'Anna di Vinadio 11-11-2019 12:30 -3.9 82 0 1009.2
Sant'Anna di Vinadio 11-11-2019 12:40 -4 82 0 1009.2
Sant'Anna di Vinadio 11-11-2019 12:50 -3.9 82 0 1009
Sant'Anna di Vinadio 11-11-2019 13:00 -3.9 83 0 1008.8
Sant'Anna di Vinadio 11-11-2019 13:10 -3.9 84 0 1008.7
Sant'Anna di Vinadio 11-11-2019 13:20 -3.9 84 0 1008.6
Sant'Anna di Vinadio 11-11-2019 13:30 -3.9 86 0 1008.4
Sant'Anna di Vinadio 11-11-2019 13:40 -3.9 86 0 1008.2
Sant'Anna di Vinadio 11-11-2019 13:50 -3.9 87 0 1008.2
Sant'Anna di Vinadio 11-11-2019 14:00 -3.6 88 0 1008.2
Sant'Anna di Vinadio 11-11-2019 14:10 -3.4 89 0 1008.1
Sant'Anna di Vinadio 11-11-2019 14:20 -3.3 89 0 1008
Sant'Anna di Vinadio 11-11-2019 14:30 -3.5 89 0 1007.9
Sant'Anna di Vinadio 11-11-2019 14:40 -3.7 90 0 1007.9
Sant'Anna di Vinadio 11-11-2019 14:50 -3.7 90 0 1007.8
Sant'Anna di Vinadio 11-11-2019 15:00 -3.6 91 0.1 1007.8
Sant'Anna di Vinadio 11-11-2019 15:10 -3.4 92 0.2 1007.7
Sant'Anna di Vinadio 11-11-2019 15:20 -3.2 92 0.1 1007.6
Sant'Anna di Vinadio 11-11-2019 15:30 -3.2 91 0.1 1007.6
Sant'Anna di Vinadio 11-11-2019 15:40 -3 92 0.1 1007.4
Sant'Anna di Vinadio 11-11-2019 15:50 -3 92 0.1 1007.4
Sant'Anna di Vinadio 11-11-2019 16:00 -3.1 92 0 1007.3
Sant'Anna di Vinadio 11-11-2019 16:10 -3.4 92 0.1 1007.3
Sant'Anna di Vinadio 11-11-2019 16:20 -3.4 93 0 1007.3
Sant'Anna di Vinadio 11-11-2019 16:30 -3.5 93 0 1007.2
Sant'Anna di Vinadio 11-11-2019 16:40 -3.3 94 0 1007.2
Sant'Anna di Vinadio 11-11-2019 16:50 -3.4 94 0.1 1007.2
Sant'Anna di Vinadio 11-11-2019 17:00 -3.5 94 0.1 1007.1
Sant'Anna di Vinadio 11-11-2019 17:10 -3.4 95 0.1 1007.1
Sant'Anna di Vinadio 11-11-2019 17:20 -3.4 95 0 1007.1
Sant'Anna di Vinadio 11-11-2019 17:30 -3.3 95 0.1 1007.1
Sant'Anna di Vinadio 11-11-2019 17:40 -3.3 95 0.1 1007
Sant'Anna di Vinadio 11-11-2019 17:50 -3.4 95 0 1007
Sant'Anna di Vinadio 11-11-2019 18:00 -3.3 95 0 1007
Sant'Anna di Vinadio 11-11-2019 18:10 -3.3 95 0 1007
Sant'Anna di Vinadio 11-11-2019 18:20 -3.3 95 0 1007
Sant'Anna di Vinadio 11-11-2019 18:30 -3.3 95 0 1007
Sant'Anna di Vinadio 11-11-2019 18:40 -3.3 95 0 1007
Sant'Anna di Vinadio 11-11-2019 18:50 -3.2 95 0 1006.9
Sant'Anna di Vinadio 11-11-2019 19:00 -3.2 95 0.1 1007
Sant'Anna di Vinadio 11-11-2019 19:10 -3.2 95 0 1007
Sant'Anna di Vinadio 11-11-2019 19:20 -3.2 95 0 1007
Sant'Anna di Vinadio 11-11-2019 19:30 -3.1 95 0 1006.9
Sant'Anna di Vinadio 11-11-2019 19:40 -3.1 95 0.1 1006.9
Sant'Anna di Vinadio 11-11-2019 19:50 -3.1 95 0 1006.8
Sant'Anna di Vinadio 11-11-2019 20:00 -3 95 0.1 1006.7
Sant'Anna di Vinadio 11-11-2019 20:10 -2.8 96 0 1006.5
Sant'Anna di Vinadio 11-11-2019 20:20 -2.6 97 0.1 1006.3
Sant'Anna di Vinadio 11-11-2019 20:30 -2.3 97 0 1006.2
Sant'Anna di Vinadio 11-11-2019 20:40 -2.2 97 0 1006.2
Sant'Anna di Vinadio 11-11-2019 20:50 -2 98 0 1006.2
Sant'Anna di Vinadio 11-11-2019 21:00 -1.9 98 0 1006.1
Sant'Anna di Vinadio 11-11-2019 21:10 -1.8 98 0 1006.1
Sant'Anna di Vinadio 11-11-2019 21:20 -1.5 99 0 1006
Sant'Anna di Vinadio 11-11-2019 21:30 -1.5 98 0 1005.9
Sant'Anna di Vinadio 11-11-2019 21:40 -1.9 98 0 1005.9
Sant'Anna di Vinadio 11-11-2019 21:50 -2.1 99 0.1 1005.8
Sant'Anna di Vinadio 11-11-2019 22:00 -2 99 0 1005.8
Sant'Anna di Vinadio 11-11-2019 22:10 -2.3 97 0 1005.8
Sant'Anna di Vinadio 11-11-2019 22:20 -2.8 98 0 1005.8
Sant'Anna di Vinadio 11-11-2019 22:30 -2.6 98 0 1005.7
Sant'Anna di Vinadio 11-11-2019 22:40 -1.9 99 0 1005.7
Sant'Anna di Vinadio 11-11-2019 22:50 -1.7 98 0 1005.7
Sant'Anna di Vinadio 11-11-2019 23:00 -1.5 97 0 1005.6
Sant'Anna di Vinadio 11-11-2019 23:10 -1.4 95 0 1005.5
Sant'Anna di Vinadio 11-11-2019 23:20 -1.7 94 0 1005.5
Sant'Anna di Vinadio 11-11-2019 23:30 -1.8 94 0 1005.4
Sant'Anna di Vinadio 11-11-2019 23:40 -2.1 94 0 1005.4
Sant'Anna di Vinadio 11-11-2019 23:50 -2.2 97 0 1005.3
Sant'Anna di Vinadio 12-11-2019 00:00 -1.4 98 0 1005.3
Sant'Anna di Vinadio 12-11-2019 00:10 -1 96 0 1005.3
Sant'Anna di Vinadio 12-11-2019 00:20 -0.9 94 0 1005.2
Sant'Anna di Vinadio 12-11-2019 00:30 -1.2 89 0 1005.1
Sant'Anna di Vinadio 12-11-2019 00:40 -1.1 87 0 1005.1
Sant'Anna di Vinadio 12-11-2019 00:50 -1.9 87 0 1005
Sant'Anna di Vinadio 12-11-2019 01:00 -2.1 87 0 1005
Sant'Anna di Vinadio 12-11-2019 01:10 -2.1 83 0 1005
Sant'Anna di Vinadio 12-11-2019 01:20 -2 81 0 1004.9
Sant'Anna di Vinadio 12-11-2019 01:30 -2.1 81 0 1004.6
Sant'Anna di Vinadio 12-11-2019 01:40 -2 80 0 1004.6
Sant'Anna di Vinadio 12-11-2019 01:50 -2.1 80 0 1004.6
Sant'Anna di Vinadio 12-11-2019 02:00 -2.4 81 0 1004.6
Sant'Anna di Vinadio 12-11-2019 02:10 -2.4 80 0 1004.6
Sant'Anna di Vinadio 12-11-2019 02:20 -2.5 81 0 1004.4
Sant'Anna di Vinadio 12-11-2019 02:30 -2.3 81 0 1004.3
Sant'Anna di Vinadio 12-11-2019 02:40 -2.2 78 0 1004.2
Sant'Anna di Vinadio 12-11-2019 02:50 -2.3 78 0 1004.1
Sant'Anna di Vinadio 12-11-2019 03:00 -2.3 76 0 1004
Sant'Anna di Vinadio 12-11-2019 03:10 -2.8 77 0 1003.9
Sant'Anna di Vinadio 12-11-2019 03:20 -2.9 77 0 1003.8
Sant'Anna di Vinadio 12-11-2019 03:30 -3.1 78 0 1003.7
Sant'Anna di Vinadio 12-11-2019 03:40 -3.4 78 0 1003.6
Sant'Anna di Vinadio 12-11-2019 03:50 -3.6 80 0 1003.5
Sant'Anna di Vinadio 12-11-2019 04:00 -3.4 82 0 1003.4
Sant'Anna di Vinadio 12-11-2019 04:10 -3.4 83 0 1003.4
Sant'Anna di Vinadio 12-11-2019 04:20 -3.4 82 0 1003.3
Sant'Anna di Vinadio 12-11-2019 04:30 -3.5 84 0 1003.2
Sant'Anna di Vinadio 12-11-2019 04:40 -3.8 84 0 1003
Sant'Anna di Vinadio 12-11-2019 04:50 -3.9 85 0 1002.9
Sant'Anna di Vinadio 12-11-2019 05:00 -4 85 0 1003
Sant'Anna di Vinadio 12-11-2019 05:10 -4 84 0 1003
Sant'Anna di Vinadio 12-11-2019 05:20 -3.9 83 0 1003.1
Sant'Anna di Vinadio 12-11-2019 05:30 -3.6 83 0 1003.1
Sant'Anna di Vinadio 12-11-2019 05:40 -3.6 83 0 1003.1
Sant'Anna di Vinadio 12-11-2019 05:50 -3.6 83 0 1003.1
Sant'Anna di Vinadio 12-11-2019 06:00 -3.6 84 0 1002.9
Sant'Anna di Vinadio 12-11-2019 06:10 -3.3 86 0 1002.8
Sant'Anna di Vinadio 12-11-2019 06:20 -3.2 87 0 1002.8
Sant'Anna di Vinadio 12-11-2019 06:30 -3.2 88 0 1002.9
Sant'Anna di Vinadio 12-11-2019 06:40 -3.2 89 0 1002.9
Sant'Anna di Vinadio 12-11-2019 06:50 -3.3 90 0 1002.8
Sant'Anna di Vinadio 12-11-2019 07:00 -3.2 92 0 1002.9
Sant'Anna di Vinadio 12-11-2019 07:10 -3.2 92 0 1002.9
Sant'Anna di Vinadio 12-11-2019 07:20 -3.3 91 0 1002.8
Sant'Anna di Vinadio 12-11-2019 07:30 -3.4 92 0 1002.9
Sant'Anna di Vinadio 12-11-2019 07:40 -3.4 91 0 1003.1
Sant'Anna di Vinadio 12-11-2019 07:50 -3.4 90 0 1003
Sant'Anna di Vinadio 12-11-2019 08:00 -3.5 90 0 1002.9
Sant'Anna di Vinadio 12-11-2019 08:10 -3.5 89 0 1002.8
Sant'Anna di Vinadio 12-11-2019 08:20 -3.4 89 0 1002.7
Sant'Anna di Vinadio 12-11-2019 08:30 -3.3 87 0 1002.9
Sant'Anna di Vinadio 12-11-2019 08:40 -3.2 87 0 1003
Sant'Anna di Vinadio 12-11-2019 08:50 -2.9 86 0 1003.1
Sant'Anna di Vinadio 12-11-2019 09:00 -2.5 84 0 1003.1
Sant'Anna di Vinadio 12-11-2019 09:10 -2 81 0 1003.1
Sant'Anna di Vinadio 12-11-2019 09:20 -1.1 79 0 1003.1
Sant'Anna di Vinadio 12-11-2019 09:30 -1 78 0 1003.1
Sant'Anna di Vinadio 12-11-2019 09:40 -0.9 76 0 1003.1
Sant'Anna di Vinadio 12-11-2019 09:50 -0.6 75 0.1 1003
Sant'Anna di Vinadio 12-11-2019 10:00 0.2 75 0.1 1003
Sant'Anna di Vinadio 12-11-2019 10:10 0.2 73 0.1 1003
Sant'Anna di Vinadio 12-11-2019 10:20 0.1 73 0 1002.8
Sant'Anna di Vinadio 12-11-2019 10:30 0.4 73 0 1002.8
Sant'Anna di Vinadio 12-11-2019 10:40 0.5 72 0 1002.9
Sant'Anna di Vinadio 12-11-2019 10:50 0.2 70 0 1002.9
Sant'Anna di Vinadio 12-11-2019 11:00 0 70 0 1002.9
Sant'Anna di Vinadio 12-11-2019 11:10 0.2 70 0 1002.8
Sant'Anna di Vinadio 12-11-2019 11:20 0.4 68 0 1002.8
Sant'Anna di Vinadio 12-11-2019 11:30 0.3 67 0 1002.6
Sant'Anna di Vinadio 12-11-2019 11:40 0.1 64 0 1002.6
Sant'Anna di Vinadio 12-11-2019 11:50 0.1 62 0 1002.3
Sant'Anna di Vinadio 12-11-2019 12:00 0.1 62 0 1002.2
Sant'Anna di Vinadio 12-11-2019 12:10 0.1 62 0 1001.9
Sant'Anna di Vinadio 12-11-2019 12:20 0 61 0 1001.8
Sant'Anna di Vinadio 12-11-2019 12:30 0.1 61 0 1001.7
Sant'Anna di Vinadio 12-11-2019 12:40 0.1 62 0 1001.5
Sant'Anna di Vinadio 12-11-2019 12:50 0 62 0.1 1001.2
Sant'Anna di Vinadio 12-11-2019 13:00 0 63 0 1000.9
Sant'Anna di Vinadio 12-11-2019 13:10 -0.2 63 0 1000.8
Sant'Anna di Vinadio 12-11-2019 13:20 -0.1 62 0 1000.9
Sant'Anna di Vinadio 12-11-2019 13:30 -0.1 62 0 1000.8
Sant'Anna di Vinadio 12-11-2019 13:40 -0.1 63 0 1000.8
Sant'Anna di Vinadio 12-11-2019 13:50 -0.1 63 0 1000.9
Sant'Anna di Vinadio 12-11-2019 14:00 0.2 62 0 1000.9
Sant'Anna di Vinadio 12-11-2019 14:10 0.4 61 0 1000.8
Sant'Anna di Vinadio 12-11-2019 14:20 0.6 60 0 1000.7
Sant'Anna di Vinadio 12-11-2019 14:30 0.3 58 0 1000.6
Sant'Anna di Vinadio 12-11-2019 14:40 0.1 56 0 1000.5
Sant'Anna di Vinadio 12-11-2019 14:50 0.2 55 0 1000.5
Sant'Anna di Vinadio 12-11-2019 15:00 0.2 53 0 1000.5
Sant'Anna di Vinadio 12-11-2019 15:10 -0.3 51 0 1000.5
Sant'Anna di Vinadio 12-11-2019 15:20 -0.4 50 0 1000.4
Sant'Anna di Vinadio 12-11-2019 15:30 -0.4 50 0 1000.4
Sant'Anna di Vinadio 12-11-2019 15:40 -0.5 51 0 1000.4
Sant'Anna di Vinadio 12-11-2019 15:50 -0.5 50 0 1000.5
Sant'Anna di Vinadio 12-11-2019 16:00 -0.6 50 0 1000.5
Sant'Anna di Vinadio 12-11-2019 16:10 -0.6 50 0 1000.3
Sant'Anna di Vinadio 12-11-2019 16:20 -0.7 51 0 1000.3
Sant'Anna di Vinadio 12-11-2019 16:30 -0.7 51 0 1000.3
Sant'Anna di Vinadio 12-11-2019 16:40 -0.6 52 0 1000.2
Sant'Anna di Vinadio 12-11-2019 16:50 -0.7 52 0 1000.1
Sant'Anna di Vinadio 12-11-2019 17:00 -0.7 52 0 1000.1
Sant'Anna di Vinadio 12-11-2019 17:10 -0.7 51 0 1000
Sant'Anna di Vinadio 12-11-2019 17:20 -0.6 50 0 1000
Sant'Anna di Vinadio 12-11-2019 17:30 -0.6 48 0 999.9
Sant'Anna di Vinadio 12-11-2019 17:40 -0.6 41 0 999.8
Sant'Anna di Vinadio 12-11-2019 17:50 -0.5 38 0 999.8
Sant'Anna di Vinadio 12-11-2019 18:00 -0.4 38 0 999.8
Sant'Anna di Vinadio 12-11-2019 18:10 -0.4 37 0 999.7
Sant'Anna di Vinadio 12-11-2019 18:20 -0.5 30 0 999.6
Sant'Anna di Vinadio 12-11-2019 18:30 -0.8 36 0 999.7
Sant'Anna di Vinadio 12-11-2019 18:40 -0.4 34 0 999.7
Sant'Anna di Vinadio 12-11-2019 18:50 0.1 19 0 999.8
Sant'Anna di Vinadio 12-11-2019 19:00 0.3 19 0 999.7
Sant'Anna di Vinadio 12-11-2019 19:10 0 18 0 999.6
Sant'Anna di Vinadio 12-11-2019 19:20 -0.4 20 0 999.4
Sant'Anna di Vinadio 12-11-2019 19:30 -0.1 16 0 999.3
Sant'Anna di Vinadio 12-11-2019 19:40 0.2 15 0 999.1
Sant'Anna di Vinadio 12-11-2019 19:50 0.5 13 0 999
Sant'Anna di Vinadio 12-11-2019 20:00 0.5 12 0 998.8
Sant'Anna di Vinadio 12-11-2019 20:10 0.6 13 0 998.7
Sant'Anna di Vinadio 12-11-2019 20:20 0.4 13 0 998.7
Sant'Anna di Vinadio 12-11-2019 20:30 0.3 11 0 998.7
Sant'Anna di Vinadio 12-11-2019 20:40 -0.1 11 0 998.8
Sant'Anna di Vinadio 12-11-2019 20:50 -0.2 11 0 998.7
Sant'Anna di Vinadio 12-11-2019 21:00 -0.1 10 0 998.7
Sant'Anna di Vinadio 12-11-2019 21:10 0.2 9 0 998.6
Sant'Anna di Vinadio 12-11-2019 21:20 0.1 9 0 998.6
Sant'Anna di Vinadio 12-11-2019 21:30 0.2 9 0 998.4
Sant'Anna di Vinadio 12-11-2019 21:40 0.1 9 0 998.4
Sant'Anna di Vinadio 12-11-2019 21:50 -0.2 10 0 998.3
Sant'Anna di Vinadio 12-11-2019 22:00 -0.2 9 0 998.3
Sant'Anna di Vinadio 12-11-2019 22:10 -0.1 9 0 998.1
Sant'Anna di Vinadio 12-11-2019 22:20 -0.3 9 0 998.1
Sant'Anna di Vinadio 12-11-2019 22:30 0.1 9 0 998
Sant'Anna di Vinadio 12-11-2019 22:40 0.3 8 0 998
Sant'Anna di Vinadio 12-11-2019 22:50 0.1 9 0 998
Sant'Anna di Vinadio 12-11-2019 23:00 0.1 8 0 997.9
Sant'Anna di Vinadio 12-11-2019 23:10 -0.1 9 0 997.9
Sant'Anna di Vinadio 12-11-2019 23:20 -0.1 11 0 997.9
Sant'Anna di Vinadio 12-11-2019 23:30 -0.7 14 0 997.9
Sant'Anna di Vinadio 12-11-2019 23:40 -0.6 12 0 998
Sant'Anna di Vinadio 12-11-2019 23:50 -0.3 10 0 998
Sant'Anna di Vinadio 13-11-2019 00:00 -0.1 9 0 997.9
Sant'Anna di Vinadio 13-11-2019 00:10 0.4 9 0 997.8
Sant'Anna di Vinadio 13-11-2019 00:20 0.3 8 0 997.8
Sant'Anna di Vinadio 13-11-2019 00:30 -0.1 8 0 997.7
Sant'Anna di Vinadio 13-11-2019 00:40 0 7 0 997.8
Sant'Anna di Vinadio 13-11-2019 00:50 0 7 0 997.8
Sant'Anna di Vinadio 13-11-2019 01:00 -0.2 8 0 997.8
Sant'Anna di Vinadio 13-11-2019 01:10 -0.5 8 0 997.7
Sant'Anna di Vinadio 13-11-2019 01:20 -0.5 7 0 997.7
Sant'Anna di Vinadio 13-11-2019 01:30 -0.5 7 0 997.7
Sant'Anna di Vinadio 13-11-2019 01:40 -0.5 7 0 997.6
Sant'Anna di Vinadio 13-11-2019 01:50 -0.5 8 0 997.6
Sant'Anna di Vinadio 13-11-2019 02:00 -0.7 9 0 997.5
Sant'Anna di Vinadio 13-11-2019 02:10 -1 9 0 997.5
Sant'Anna di Vinadio 13-11-2019 02:20 -1 12 0 997.3
Sant'Anna di Vinadio 13-11-2019 02:30 -1 11 0 997.2
Sant'Anna di Vinadio 13-11-2019 02:40 -1.2 12 0 997.1
Sant'Anna di Vinadio 13-11-2019 02:50 -1 12 0 997
Sant'Anna di Vinadio 13-11-2019 03:00 -0.7 9 0 996.9
Sant'Anna di Vinadio 13-11-2019 03:10 -0.9 9 0 996.7
Sant'Anna di Vinadio 13-11-2019 03:20 -0.9 9 0 996.6
Sant'Anna di Vinadio 13-11-2019 03:30 -1.2 11 0 996.5
Sant'Anna di Vinadio 13-11-2019 03:40 -1.4 11 0 996.4
Sant'Anna di Vinadio 13-11-2019 03:50 -1.9 9 0 996.3
Sant'Anna di Vinadio 13-11-2019 04:00 -2 10 0 996.4
Sant'Anna di Vinadio 13-11-2019 04:10 -2.3 10 0 996.4
Sant'Anna di Vinadio 13-11-2019 04:20 -2.5 11 0 996.5
Sant'Anna di Vinadio 13-11-2019 04:30 -2.5 11 0 996.4
Sant'Anna di Vinadio 13-11-2019 04:40 -2.3 11 0 996.4
Sant'Anna di Vinadio 13-11-2019 04:50 -2.7 11 0 996.4
Sant'Anna di Vinadio 13-11-2019 05:00 -2.7 12 0 996.6
Sant'Anna di Vinadio 13-11-2019 05:10 -3.1 14 0 996.7
Sant'Anna di Vinadio 13-11-2019 05:20 -3.4 18 0 996.9
Sant'Anna di Vinadio 13-11-2019 05:30 -3.8 19 0 997.1
Sant'Anna di Vinadio 13-11-2019 05:40 -3.7 20 0 997.2
Sant'Anna di Vinadio 13-11-2019 05:50 -4.3 20 0 997.2
Sant'Anna di Vinadio 13-11-2019 06:00 -4.5 19 0 997.2
Sant'Anna di Vinadio 13-11-2019 06:10 -4.6 19 0 997.2
Sant'Anna di Vinadio 13-11-2019 06:20 -4.5 19 0 997.2
Sant'Anna di Vinadio 13-11-2019 06:30 -4.5 19 0 997.4
Sant'Anna di Vinadio 13-11-2019 06:40 -4.5 22 0 997.4
Sant'Anna di Vinadio 13-11-2019 06:50 -4.7 23 0 997.3
Sant'Anna di Vinadio 13-11-2019 07:00 -5.2 25 0 997.4
Sant'Anna di Vinadio 13-11-2019 07:10 -5.5 25 0 997.5
Sant'Anna di Vinadio 13-11-2019 07:20 -5.5 24 0 997.6
Sant'Anna di Vinadio 13-11-2019 07:30 -5.5 24 0 997.6
Sant'Anna di Vinadio 13-11-2019 07:40 -5.4 23 0 997.7
Sant'Anna di Vinadio 13-11-2019 07:50 -5.3 23 0 997.9
Sant'Anna di Vinadio 13-11-2019 08:00 -5.2 23 0 998
Sant'Anna di Vinadio 13-11-2019 08:10 -5.2 24 0 998.1
Sant'Anna di Vinadio 13-11-2019 08:20 -4.2 24 0 998.2
Sant'Anna di Vinadio 13-11-2019 08:30 -2.4 22 0 998.4
Sant'Anna di Vinadio 13-11-2019 08:40 -2.2 21 0 998.5
Sant'Anna di Vinadio 13-11-2019 08:50 -1.5 20 0 998.6
Sant'Anna di Vinadio 13-11-2019 09:00 -1.4 20 0 998.7
Sant'Anna di Vinadio 13-11-2019 09:10 -0.8 19 0 998.8
Sant'Anna di Vinadio 13-11-2019 09:20 0.5 18 0 998.9
Sant'Anna di Vinadio 13-11-2019 09:30 0.7 17 0 999
Sant'Anna di Vinadio 13-11-2019 09:40 -0.4 16 0 999.1
Sant'Anna di Vinadio 13-11-2019 09:50 0.6 13 0 999.2
Sant'Anna di Vinadio 13-11-2019 10:00 0.6 15 0 999.3
Sant'Anna di Vinadio 13-11-2019 10:10 0.4 15 0 999.4
Sant'Anna di Vinadio 13-11-2019 10:20 2.1 13 0 999.5
Sant'Anna di Vinadio 13-11-2019 10:30 2.7 9 0 999.6
Sant'Anna di Vinadio 13-11-2019 10:40 3.2 9 0 999.7
Sant'Anna di Vinadio 13-11-2019 10:50 3.2 7 0 999.8
Sant'Anna di Vinadio 13-11-2019 11:00 2.7 9 0 999.9
Sant'Anna di Vinadio 13-11-2019 11:10 2.4 8 0 1000
Sant'Anna di Vinadio 13-11-2019 11:20 2.9 8 0 1000
Sant'Anna di Vinadio 13-11-2019 11:30 3.9 9 0 1000.1
Sant'Anna di Vinadio 13-11-2019 11:40 3.9 6 0 1000.1
Sant'Anna di Vinadio 13-11-2019 11:50 4.1 7 0 1000
Sant'Anna di Vinadio 13-11-2019 12:00 4.7 6 0 1000.1
Sant'Anna di Vinadio 13-11-2019 12:10 5.7 10 0 1000.2
Sant'Anna di Vinadio 13-11-2019 12:20 3.7 12 0 1000.2
Sant'Anna di Vinadio 13-11-2019 12:30 2.6 15 0 1000.3
Sant'Anna di Vinadio 13-11-2019 12:40 2 16 0 1000.3
Sant'Anna di Vinadio 13-11-2019 12:50 3 9 0 1000.3
Sant'Anna di Vinadio 13-11-2019 13:00 2.9 11 0 1000.4
Sant'Anna di Vinadio 13-11-2019 13:10 3 13 0 1000.4
Sant'Anna di Vinadio 13-11-2019 13:20 3.2 13 0 1000.5
Sant'Anna di Vinadio 13-11-2019 13:30 3.6 12 0 1000.6
Sant'Anna di Vinadio 13-11-2019 13:40 3.5 13 0 1000.7
Sant'Anna di Vinadio 13-11-2019 13:50 2.8 8 0 1000.8
Sant'Anna di Vinadio 13-11-2019 14:00 3.4 11 0 1000.8
Sant'Anna di Vinadio 13-11-2019 14:10 3 17 0 1000.9
Sant'Anna di Vinadio 13-11-2019 14:20 2.5 18 0 1000.9
Sant'Anna di Vinadio 13-11-2019 14:30 2.5 19 0 1000.9
Sant'Anna di Vinadio 13-11-2019 14:40 2.4 19 0 1001
Sant'Anna di Vinadio 13-11-2019 14:50 2.3 25 0 1001
Sant'Anna di Vinadio 13-11-2019 15:00 1.3 25 0 1001.1
Sant'Anna di Vinadio 13-11-2019 15:10 1.4 20 0 1001.2
Sant'Anna di Vinadio 13-11-2019 15:20 1.4 14 0 1001.2
Sant'Anna di Vinadio 13-11-2019 15:30 1.5 14 0 1001.2
Sant'Anna di Vinadio 13-11-2019 15:40 1.2 14 0 1001.3
Sant'Anna di Vinadio 13-11-2019 15:50 1.1 23 0 1001.4
Sant'Anna di Vinadio 13-11-2019 16:00 0.8 23 0 1001.5
Sant'Anna di Vinadio 13-11-2019 16:10 0.8 23 0 1001.6
Sant'Anna di Vinadio 13-11-2019 16:20 0.5 27 0 1001.7
Sant'Anna di Vinadio 13-11-2019 16:30 -0.1 29 0 1001.7
Sant'Anna di Vinadio 13-11-2019 16:40 -0.3 29 0 1001.8
Sant'Anna di Vinadio 13-11-2019 16:50 -0.4 29 0 1001.8
Sant'Anna di Vinadio 13-11-2019 17:00 0 29 0 1001.9
Sant'Anna di Vinadio 13-11-2019 17:10 -0.2 29 0 1001.9
Sant'Anna di Vinadio 13-11-2019 17:20 -0.3 29 0 1002.1
Sant'Anna di Vinadio 13-11-2019 17:30 -0.3 26 0 1002.3
Sant'Anna di Vinadio 13-11-2019 17:40 0.1 26 0 1002.4
Sant'Anna di Vinadio 13-11-2019 17:50 0.1 25 0 1002.6
Sant'Anna di Vinadio 13-11-2019 18:00 0.1 26 0 1002.7
Sant'Anna di Vinadio 13-11-2019 18:10 -0.2 29 0 1002.7
Sant'Anna di Vinadio 13-11-2019 18:20 -1 30 0 1002.8
Sant'Anna di Vinadio 13-11-2019 18:30 -0.9 28 0 1002.8
Sant'Anna di Vinadio 13-11-2019 18:40 -0.6 24 0 1002.8
Sant'Anna di Vinadio 13-11-2019 18:50 -0.6 24 0 1002.8
Sant'Anna di Vinadio 13-11-2019 19:00 -0.6 27 0 1002.9
Sant'Anna di Vinadio 13-11-2019 19:10 -0.5 27 0 1002.9
Sant'Anna di Vinadio 13-11-2019 19:20 -0.5 25 0 1003
Sant'Anna di Vinadio 13-11-2019 19:30 -0.3 23 0 1003
Sant'Anna di Vinadio 13-11-2019 19:40 -0.4 22 0 1003.2
Sant'Anna di Vinadio 13-11-2019 19:50 -0.2 22 0 1003.2
Sant'Anna di Vinadio 13-11-2019 20:00 -0.2 22 0 1003.2
Sant'Anna di Vinadio 13-11-2019 20:10 -0.4 22 0 1003.1
Sant'Anna di Vinadio 13-11-2019 20:20 0 20 0 1003.1
Sant'Anna di Vinadio 13-11-2019 20:30 0.3 18 0 1003.1
Sant'Anna di Vinadio 13-11-2019 20:40 0.3 19 0 1003.1
Sant'Anna di Vinadio 13-11-2019 20:50 0 19 0 1003.2
Sant'Anna di Vinadio 13-11-2019 21:00 0 19 0 1003.3
Sant'Anna di Vinadio 13-11-2019 21:10 0 18 0 1003.4
Sant'Anna di Vinadio 13-11-2019 21:20 0 19 0 1003.5
Sant'Anna di Vinadio 13-11-2019 21:30 0.1 18 0 1003.6
Sant'Anna di Vinadio 13-11-2019 21:40 0.2 18 0 1003.6
Sant'Anna di Vinadio 13-11-2019 21:50 0 18 0 1003.7
Sant'Anna di Vinadio 13-11-2019 22:00 -0.1 18 0 1003.7
Sant'Anna di Vinadio 13-11-2019 22:10 -0.1 19 0 1003.7
Sant'Anna di Vinadio 13-11-2019 22:20 -0.1 19 0 1003.7
Sant'Anna di Vinadio 13-11-2019 22:30 -0.1 19 0 1003.7
Sant'Anna di Vinadio 13-11-2019 22:40 -0.2 19 0 1003.6
Sant'Anna di Vinadio 13-11-2019 22:50 -0.2 19 0 1003.6
Sant'Anna di Vinadio 13-11-2019 23:00 -0.2 19 0 1003.6
Sant'Anna di Vinadio 13-11-2019 23:10 -0.3 20 0 1003.6
Sant'Anna di Vinadio 13-11-2019 23:20 -0.6 19 0 1003.5
Sant'Anna di Vinadio 13-11-2019 23:30 -0.6 19 0 1003.5
Sant'Anna di Vinadio 13-11-2019 23:40 -0.8 20 0 1003.4
Sant'Anna di Vinadio 13-11-2019 23:50 -1 22 0 1003.4
Sant'Anna di Vinadio 14-11-2019 00:00 -1.1 24 0 1003.4
Sant'Anna di Vinadio 14-11-2019 00:10 -1.2 27 0 1003.5
Sant'Anna di Vinadio 14-11-2019 00:20 -1.2 28 0 1003.6
Sant'Anna di Vinadio 14-11-2019 00:30 -1.4 33 0 1003.5
Sant'Anna di Vinadio 14-11-2019 00:40 -1.7 35 0 1003.5
Sant'Anna di Vinadio 14-11-2019 00:50 -1.9 40 0 1003.5
Sant'Anna di Vinadio 14-11-2019 01:00 -1.7 39 0 1003.5
Sant'Anna di Vinadio 14-11-2019 01:10 -1.5 32 0 1003.5
Sant'Anna di Vinadio 14-11-2019 01:20 -1.6 37 0 1003.5
Sant'Anna di Vinadio 14-11-2019 01:30 -2.1 42 0 1003.5
Sant'Anna di Vinadio 14-11-2019 01:40 -2.1 42 0 1003.6
Sant'Anna di Vinadio 14-11-2019 01:50 -2 43 0 1003.6
Sant'Anna di Vinadio 14-11-2019 02:00 -2.1 46 0 1003.7
Sant'Anna di Vinadio 14-11-2019 02:10 -2.6 46 0 1003.7
Sant'Anna di Vinadio 14-11-2019 02:20 -2.8 44 0 1003.6
Sant'Anna di Vinadio 14-11-2019 02:30 -3.1 44 0 1003.6
Sant'Anna di Vinadio 14-11-2019 02:40 -3.3 41 0 1003.7
Sant'Anna di Vinadio 14-11-2019 02:50 -4 43 0 1003.7
Sant'Anna di Vinadio 14-11-2019 03:00 -4.3 43 0 1003.7
Sant'Anna di Vinadio 14-11-2019 03:10 -4.4 43 0 1003.8
Sant'Anna di Vinadio 14-11-2019 03:20 -4.4 44 0 1003.8
Sant'Anna di Vinadio 14-11-2019 03:30 -4.7 44 0 1003.8
Sant'Anna di Vinadio 14-11-2019 03:40 -4.7 44 0 1003.8
Sant'Anna di Vinadio 14-11-2019 03:50 -4.6 44 0 1003.7
Sant'Anna di Vinadio 14-11-2019 04:00 -4.6 44 0 1003.5
Sant'Anna di Vinadio 14-11-2019 04:10 -5 45 0 1003.5
Sant'Anna di Vinadio 14-11-2019 04:20 -5 45 0 1003.5
Sant'Anna di Vinadio 14-11-2019 04:30 -5.1 45 0 1003.6
Sant'Anna di Vinadio 14-11-2019 04:40 -4.9 44 0 1003.6
Sant'Anna di Vinadio 14-11-2019 04:50 -4.6 45 0 1003.6
Sant'Anna di Vinadio 14-11-2019 05:00 -4.7 46 0 1003.6
Sant'Anna di Vinadio 14-11-2019 05:10 -4.8 47 0 1003.7
Sant'Anna di Vinadio 14-11-2019 05:20 -5 48 0 1003.5
Sant'Anna di Vinadio 14-11-2019 05:30 -5 49 0 1003.3
Sant'Anna di Vinadio 14-11-2019 05:40 -5 48 0 1003.4
Sant'Anna di Vinadio 14-11-2019 05:50 -5 48 0 1003.6
Sant'Anna di Vinadio 14-11-2019 06:00 -5.2 48 0 1003.7
Sant'Anna di Vinadio 14-11-2019 06:10 -5.3 49 0 1003.8
Sant'Anna di Vinadio 14-11-2019 06:20 -5.4 50 0 1003.8
Sant'Anna di Vinadio 14-11-2019 06:30 -5.3 50 0 1003.8
Sant'Anna di Vinadio 14-11-2019 06:40 -5.2 50 0 1003.8
Sant'Anna di Vinadio 14-11-2019 06:50 -5.1 50 0 1003.9
Sant'Anna di Vinadio 14-11-2019 07:00 -5.4 51 0 1004.1
Sant'Anna di Vinadio 14-11-2019 07:10 -5.4 51 0 1004.2
Sant'Anna di Vinadio 14-11-2019 07:20 -5.4 52 0 1004.2

Riassuntivo giornaliero del 14-11-2019